Location: Gradaro
(45.0833°N, 10.8833°E)
Time: 13:43:35
(UTC+00:00)

CZ-4C R/B - Pass Details

Date: 29 November 2020
Orbit: 620 x 1382 km, 63.4° (Epoch: 24 January)

Event Time Altitude Azimuth Distance (km) Brightness Sun altitude
Exits shadow 05:11:09 10° 242° (WSW) 2,181 3.9 -14.0°
Maximum altitude 05:15:57 49° 317° (NW) 1,038 2.3 -13.2°
Drops below altitude 10° 05:21:48 10° 32° (NNE) 2,646 4.9 -12.2°
Sets 05:24:43 0° 37° (NE) 3,727 5.8 -11.7°
